Temp
9 10 11 11 11 11 12 12 13 13 13 13 13 13 13 14 14 14 15 15 16 16 17 17 17 17 17 16 18 17 18 18 17 17 17 17 17 17 15 15 15 15 14 15 15 15 15
10 10 10 10 11 11 11 11 12 12 13 13 13 13 13 13 14 14 15 15 16 16 17 17 16 16 16 15 17 17 18 17 17 17 17 17 17 17 16 15 15 15 14 14 15 15 14
7 9 9 9 10 10 10 10 10 11 12 12 13 13 13 13 14 14 15 15 15 16 16 17 16 16 15 16 16 17 17 17 17 17 17 17 17 17 16 14 14 14 15 14 14 14 14
7 7 8 10 8 9 9 10 10 10 11 11 12 12 13 13 14 14 14 15 16 16 16 16 16 15 16 15 16 16 16 16 16 16 16 16 16 17 16 15 14 14 12 15 14 13 14
7 7 7 8 9 9 8 9 9 10 10 10 11 11 12 12 13 14 14 15 15 16 16 16 15 15 15 14 15 15 15 15 15 16 15 15 16 15 14 12 11 11 14 13 14 13 13
7 7 7 7 8 9 9 8 9 9 10 10 10 11 11 12 12 13 14 15 15 15 15 15 14 14 14 14 14 14 15 15 15 15 15 15 15 11 10 12 13 14 13 13 14 13 12
7 8 8 8 7 8 9 9 9 9 9 9 10 10 11 11 12 13 14 14 15 15 14 15 15 14 14 14 14 14 14 14 14 14 13 13 12 12 12 11 13 12 13 14 13 11 12
7 7 7 8 8 8 8 9 9 9 9 8 9 10 10 11 11 12 13 13 12 11 11 14 14 14 14 14 14 13 14 14 13 12 12 11 11 12 11 11 13 12 13 12 12 11 11
4 6 7 7 8 8 8 8 9 9 9 9 8 9 10 10 11 12 12 12 12 11 10 12 11 11 12 12 13 12 13 13 12 11 10 11 13 10 12 11 12 12 12 12 13 11 9
3 4 7 7 7 8 8 8 8 8 8 8 8 9 9 9 10 11 11 12 12 12 4 8 10 10 10 11 11 11 12 13 11 11 9 10 10 11 12 12 11 13 10 11 11 11 12
2 3 4 6 7 7 7 7 7 8 8 8 8 8 8 8 9 10 11 11 12 12 6 10 9 9 10 10 10 10 11 12 10 10 10 12 10 11 11 11 11 11 9 8 8 6 8
2 2 2 4 5 7 7 7 6 7 7 8 8 8 8 8 9 9 10 10 11 6 6 8 9 9 9 10 10 10 11 11 11 10 10 10 10 10 10 8 9 6 8 6 4 6 7
2 2 2 2 4 5 7 7 7 7 7 8 8 8 8 8 8 9 9 10 5 4 9 10 8 8 9 9 9 9 9 9 9 9 9 10 10 9 9 8 8 9 9 9 8 6 11
2 2 2 2 4 3 5 6 7 7 7 7 8 8 8 8 8 8 8 7 5 7 7 9 8 8 9 8 9 8 8 9 8 9 6 8 9 8 9 10 9 7 10 9 10 9 10
2 2 1 2 2 3 4 5 5 6 6 6 6 7 7 8 8 7 7 7 5 6 8 8 9 9 9 9 9 9 7 7 8 8 11 8 10 8 8 8 9 8 8 9 10 6 5
2 2 1 1 1 2 2 3 4 4 5 4 5 5 7 7 7 6 6 7 6 7 9 9 9 9 8 8 8 7 7 8 10 8 11 10 10 7 8 9 8 9 8 9 7 9 9
1 2 1 1 1 1 1 2 2 3 3 3 4 4 5 6 6 6 7 8 7 10 10 9 8 9 8 8 7 7 9 10 9 8 9 9 9 7 7 7 7 7 8 7 8 7 8
1 2 1 1 1 1 2 2 2 2 3 3 3 3 4 4 5 6 7 8 9 9 9 8 8 7 7 7 7 7 8 8 10 8 8 9 7 6 7 7 7 7 8 8 9 9 5
1 2 1 1 1 1 1 1 2 2 1 2 2 2 3 4 5 6 7 8 8 9 8 7 7 7 7 8 9 7 7 6 7 9 8 8 8 6 8 7 7 7 6 8 8 8 10
1 1 1 1 1 1 1 1 1 1 1 1 1 2 2 2 0 2 5 6 6 2 2 3 5 5 6 6 7 9 7 4 4 4 5 6 7 8 11 9 7 7 6 6 9 10 11
1 1 1 1 1 1 1 1 1 1 1 1 0 1 1 1 0 0 1 1 2 2 0 1 2 3 4 6 7 7 4 4 2 2 3 4 6 7 8 8 8 7 7 7 7 8 9
1 1 1 1 0 0 1 1 1 1 1 1 1 1 0 -1 -0 0 1 1 2 1 1 1 2 1 1 2 2 2 2 2 2 2 2 2 5 4 6 7 7 6 6 6 7 8 8
1 1 1 1 1 0 0 0 1 1 0 1 0 0 0 -0 0 1 1 1 1 1 0 0 1 1 1 1 -0 0 0 0 1 1 2 2 3 3 4 4 4 4 4 5 6 1 3
1 0 1 1 1 0 0 0 0 1 0 1 1 1 1 0 0 1 0 0 1 0 1 -0 -0 0 -0 0 0 0 0 0 1 1 1 1 2 2 3 3 4 2 1 2 1 0 0
0 0 0 0 0 0 0 0 0 0 0 1 1 2 2 -2 0 0 1 1 1 0 0 0 -0 1 1 0 -1 -0 1 1 2 1 1 1 2 2 3 3 4 1 0 2 2 1 0
0 0 0 0 0 -0 -0 -0 -0 0 0 0 0 0 1 -0 -1 1 1 1 1 1 1 0 0 1 1 0 -2 -1 0 2 3 2 1 1 1 1 2 3 3 1 0 1 0 2 1
-0 -0 0 -0 -0 -0 -0 -0 -0 -0 -0 0 -0 -0 -0 1 1 1 0 0 1 0 -1 -0 0 0 0 0 -1 -1 -0 2 0 2 1 2 2 1 2 2 1 1 1 1 0 1 2
-0 -0 -0 -0 -0 -0 -1 -1 -1 -1 -1 -0 0 -0 -0 -0 1 1 1 1 1 1 -1 -0 0 -0 0 0 -1 -1 -1 -1 -1 -1 1 1 0 -0 -1 -1 0 0 2 1 2 2 1
-1 -1 -1 -1 -1 -0 -1 -1 -1 -1 -1 -1 -0 0 -0 0 -0 0 1 1 1 1 0 0 0 -0 1 -2 -4 -3 -2 -4 -3 -1 -0 0 1 1 1 1 2 2 2 1 1 1 1
Height
1520 1522 1523 1525 1525 1526 1527 1528 1529 1530 1531 1531 1532 1532 1532 1532 1532 1531 1531 1530 1529 1528 1526 1525 1524 1523 1522 1523 1522 1521 1521 1520 1520 1520 1520 1521 1522 1523 1526 1526 1528 1529 1529 1529 1529 1530 1531
1516 1517 1519 1520 1522 1522 1523 1524 1526 1527 1528 1528 1528 1529 1529 1529 1530 1530 1529 1528 1527 1526 1525 1524 1523 1522 1522 1523 1520 1520 1519 1519 1519 1519 1519 1519 1520 1522 1524 1525 1527 1528 1529 1529 1529 1529 1529
1510 1512 1514 1516 1517 1519 1520 1521 1523 1524 1525 1525 1525 1526 1526 1527 1527 1526 1526 1526 1525 1524 1523 1522 1521 1520 1520 1520 1519 1519 1518 1518 1518 1518 1518 1519 1519 1520 1522 1526 1527 1528 1530 1529 1529 1528 1528
1506 1507 1509 1510 1512 1514 1516 1518 1519 1520 1521 1522 1521 1522 1524 1524 1524 1524 1523 1523 1522 1522 1521 1520 1520 1519 1517 1517 1517 1518 1518 1518 1518 1518 1518 1519 1519 1519 1521 1525 1528 1530 1532 1533 1527 1527 1527
1499 1502 1503 1505 1508 1509 1511 1513 1515 1517 1518 1518 1518 1519 1520 1520 1520 1520 1520 1519 1519 1519 1518 1518 1519 1519 1518 1517 1517 1517 1517 1518 1518 1518 1519 1519 1520 1520 1523 1527 1536 1535 1536 1535 1528 1526 1526
1494 1495 1497 1499 1502 1504 1507 1508 1510 1512 1514 1516 1516 1516 1517 1518 1517 1517 1516 1516 1516 1515 1515 1515 1516 1520 1517 1516 1516 1517 1517 1517 1518 1519 1521 1521 1520 1523 1526 1529 1542 1532 1534 1534 1531 1529 1528
1488 1488 1490 1492 1496 1498 1501 1504 1507 1507 1509 1511 1513 1513 1514 1515 1515 1514 1514 1514 1516 1514 1511 1510 1511 1512 1513 1515 1516 1516 1516 1517 1518 1520 1521 1522 1526 1527 1521 1522 1522 1525 1528 1528 1527 1529 1529
1473 1479 1482 1485 1489 1492 1495 1497 1500 1503 1504 1506 1508 1510 1511 1512 1512 1512 1512 1511 1512 1514 1509 1506 1507 1507 1508 1510 1513 1513 1515 1518 1518 1521 1522 1526 1528 1520 1521 1523 1524 1527 1529 1530 1528 1528 1529
1473 1470 1476 1479 1482 1485 1488 1491 1494 1498 1500 1502 1505 1506 1508 1509 1510 1510 1510 1510 1510 1512 1511 1504 1504 1505 1507 1508 1506 1508 1512 1513 1515 1520 1521 1525 1519 1518 1519 1525 1527 1529 1532 1531 1529 1529 1531
1466 1464 1466 1471 1476 1479 1482 1485 1489 1492 1495 1498 1500 1503 1505 1506 1510 1507 1508 1508 1508 1510 1524 1508 1504 1503 1506 1506 1507 1506 1508 1512 1513 1516 1520 1519 1517 1517 1519 1522 1526 1528 1529 1530 1533 1535 1537
1467 1461 1460 1463 1466 1472 1476 1480 1484 1486 1489 1493 1496 1498 1502 1504 1505 1506 1507 1507 1507 1508 1550 1505 1503 1504 1505 1509 1509 1508 1508 1510 1511 1513 1517 1513 1515 1517 1519 1517 1519 1524 1527 1533 1539 1547 1544
1467 1464 1460 1459 1457 1464 1469 1474 1478 1480 1484 1486 1490 1494 1498 1501 1503 1505 1505 1506 1507 1526 1540 1504 1501 1503 1504 1506 1507 1509 1509 1510 1511 1512 1513 1513 1512 1512 1511 1517 1518 1523 1528 1535 1545 1545 1550
1466 1463 1461 1458 1458 1456 1461 1464 1470 1475 1478 1480 1484 1491 1495 1497 1500 1502 1504 1506 1523 1534 1501 1499 1500 1501 1502 1505 1507 1508 1509 1511 1514 1522 1518 1513 1514 1513 1513 1520 1523 1523 1527 1543 1545 1552 1525
1465 1462 1460 1458 1456 1457 1454 1457 1458 1464 1471 1477 1479 1485 1490 1494 1496 1500 1503 1508 1522 1501 1497 1492 1494 1498 1502 1502 1505 1507 1510 1512 1510 1512 1523 1521 1520 1513 1511 1512 1515 1525 1521 1532 1536 1536 1523
1463 1460 1460 1460 1460 1456 1459 1454 1456 1459 1463 1471 1476 1478 1485 1489 1494 1497 1503 1504 1503 1498 1488 1491 1493 1495 1499 1498 1501 1505 1509 1508 1502 1502 1509 1519 1512 1510 1510 1510 1513 1523 1528 1521 1524 1538 1544
1459 1459 1458 1459 1460 1458 1457 1456 1454 1458 1459 1465 1470 1474 1479 1484 1490 1495 1499 1492 1494 1487 1486 1486 1489 1487 1494 1498 1501 1505 1506 1495 1494 1493 1493 1499 1509 1511 1510 1510 1514 1514 1515 1525 1533 1530 1523
1455 1456 1457 1457 1458 1458 1455 1452 1456 1458 1460 1463 1467 1473 1474 1479 1486 1491 1482 1484 1485 1483 1485 1487 1488 1488 1489 1493 1495 1499 1495 1490 1489 1491 1494 1498 1502 1515 1511 1510 1509 1517 1518 1517 1518 1522 1521
1451 1452 1453 1454 1455 1455 1454 1455 1458 1455 1459 1462 1468 1470 1471 1477 1482 1478 1475 1477 1479 1480 1481 1485 1486 1488 1489 1489 1492 1496 1492 1490 1487 1487 1495 1494 1502 1511 1502 1500 1501 1503 1503 1505 1510 1510 1522
1446 1448 1448 1449 1451 1452 1453 1456 1457 1458 1461 1465 1466 1467 1468 1471 1468 1467 1470 1471 1474 1477 1479 1481 1484 1484 1485 1487 1489 1488 1487 1487 1486 1487 1490 1492 1496 1507 1499 1503 1501 1501 1500 1497 1498 1501 1493
1442 1443 1444 1446 1445 1449 1453 1455 1456 1458 1461 1465 1466 1466 1467 1468 1468 1467 1466 1468 1470 1476 1478 1480 1480 1482 1483 1484 1482 1482 1485 1489 1487 1490 1491 1490 1490 1487 1479 1486 1490 1496 1497 1497 1494 1492 1483
1440 1439 1441 1442 1444 1447 1451 1453 1455 1458 1460 1463 1465 1465 1465 1468 1470 1469 1470 1473 1473 1475 1479 1479 1482 1484 1482 1481 1480 1481 1488 1490 1491 1492 1491 1494 1489 1486 1478 1482 1485 1486 1487 1491 1492 1488 1487
1436 1436 1438 1439 1441 1444 1446 1450 1454 1456 1458 1460 1464 1467 1468 1469 1469 1470 1471 1474 1474 1478 1480 1481 1482 1486 1486 1487 1490 1491 1492 1493 1494 1495 1496 1497 1488 1491 1479 1483 1484 1484 1485 1485 1482 1482 1478
1433 1434 1436 1437 1439 1441 1444 1447 1451 1454 1457 1458 1461 1465 1466 1469 1470 1471 1474 1476 1478 1479 1483 1484 1485 1485 1488 1492 1493 1494 1495 1496 1498 1499 1498 1499 1497 1496 1489 1488 1490 1487 1485 1479 1478 1494 1489
1431 1432 1433 1435 1437 1439 1441 1445 1447 1451 1453 1457 1458 1462 1466 1470 1471 1473 1477 1477 1479 1481 1482 1485 1486 1487 1493 1492 1493 1493 1494 1495 1497 1497 1499 1498 1497 1496 1493 1494 1489 1492 1491 1487 1490 1496 1498
1429 1430 1432 1434 1435 1437 1440 1442 1445 1447 1450 1454 1457 1460 1462 1470 1469 1472 1477 1478 1480 1481 1484 1486 1488 1489 1490 1492 1494 1495 1494 1494 1491 1492 1494 1498 1498 1496 1493 1487 1484 1491 1493 1492 1490 1494 1496
1428 1430 1431 1432 1433 1435 1437 1438 1441 1445 1447 1450 1454 1457 1461 1464 1470 1468 1474 1477 1479 1481 1483 1485 1487 1489 1490 1493 1497 1504 1498 1489 1490 1489 1491 1494 1497 1497 1493 1487 1482 1491 1493 1490 1490 1485 1488
1429 1429 1429 1431 1432 1433 1434 1436 1439 1441 1444 1447 1451 1456 1459 1463 1466 1468 1471 1473 1477 1480 1483 1484 1487 1489 1489 1492 1498 1500 1498 1491 1496 1489 1491 1489 1492 1493 1491 1486 1485 1488 1489 1488 1495 1492 1483
1429 1429 1430 1430 1431 1432 1433 1436 1437 1441 1444 1447 1450 1453 1459 1462 1465 1467 1470 1472 1475 1477 1481 1484 1487 1488 1489 1491 1496 1495 1497 1493 1496 1491 1488 1489 1491 1495 1496 1498 1492 1483 1485 1490 1487 1483 1482
1430 1430 1430 1430 1430 1431 1433 1435 1436 1439 1442 1445 1448 1451 1456 1461 1464 1466 1468 1471 1472 1475 1478 1481 1480 1480 1483 1489 1495 1493 1495 1500 1496 1494 1487 1490 1483 1484 1483 1483 1480 1480 1481 1482 1482 1482 1480
Wind_Speed
21 21 21 21 19 18 17 16 15 14 13 12 11 10 9 9 9 9 9 10 11 11 11 10 8 7 4 3 4 3 5 3 2 2 4 6 6 4 4 4 2 1 2 2 3 3 1
24 23 22 21 20 19 18 17 16 15 14 13 12 11 10 9 10 10 10 11 11 11 11 10 9 6 4 4 3 2 3 2 2 3 4 7 5 5 6 3 3 3 2 3 3 2 1
23 24 24 22 22 21 19 18 17 16 15 14 13 12 11 11 10 9 10 12 13 13 11 11 9 7 7 6 5 2 1 1 1 3 4 6 7 6 6 3 4 4 2 1 1 2 1
26 25 26 26 23 22 21 20 18 17 15 14 13 12 12 12 11 10 9 11 12 13 11 10 9 8 4 5 4 3 1 2 3 4 5 6 7 8 3 8 4 2 4 1 2 3 2
27 27 27 26 26 24 22 20 19 18 17 15 14 13 12 12 11 11 10 10 11 11 10 10 9 5 4 3 5 4 1 2 3 4 5 7 6 4 5 5 4 5 3 4 4 4 2
27 26 26 27 27 26 25 22 20 18 17 16 15 13 13 12 11 11 9 10 10 11 11 9 9 5 5 2 3 4 2 2 3 5 4 2 2 3 3 3 4 5 4 3 4 2 0
29 27 27 28 28 27 25 23 22 19 17 16 15 14 12 11 10 9 7 6 5 5 6 6 6 4 4 3 4 4 3 3 4 3 3 1 2 6 10 6 2 4 4 4 3 0 1
6 32 26 26 27 27 26 24 22 20 18 16 14 13 12 10 9 7 5 1 1 2 7 11 14 16 16 15 5 4 5 5 3 4 2 4 5 4 3 3 2 2 1 4 3 1 0
21 1 29 25 26 26 26 25 22 20 19 16 14 12 10 8 7 6 4 2 1 3 2 5 7 6 6 9 7 9 9 7 4 5 6 6 2 3 4 2 3 1 3 3 3 2 1
22 20 14 29 27 27 26 25 23 21 19 16 14 11 8 7 5 7 6 3 1 3 5 6 2 1 4 5 3 8 11 6 3 8 7 5 1 4 4 3 6 2 2 2 3 3 3
16 20 16 20 29 29 27 26 25 23 20 17 15 12 9 8 4 7 6 4 3 2 3 3 1 3 4 2 4 2 7 4 6 6 6 6 7 5 3 6 7 4 3 4 3 4 4
20 17 15 12 2 29 32 30 28 26 24 21 17 14 11 8 8 7 7 6 6 6 6 1 3 3 3 1 1 3 2 1 2 3 2 3 1 4 6 3 1 9 5 5 4 3 1
21 20 19 17 13 3 29 39 33 31 24 22 18 16 12 9 8 9 8 7 4 5 2 5 4 3 3 4 2 2 3 3 5 4 4 1 3 0 3 6 5 1 5 2 3 1 6
19 19 13 14 9 11 10 17 31 31 25 22 20 18 14 11 12 11 10 3 4 5 6 2 4 4 6 7 2 5 4 3 5 3 3 5 5 7 3 2 6 5 5 5 7 4 3
19 17 13 11 10 7 1 9 14 24 24 24 21 19 17 13 14 15 10 7 7 7 5 8 3 4 5 4 4 4 6 5 8 11 8 5 5 1 1 2 2 5 4 1 3 2 1
19 17 16 9 6 8 8 3 11 11 17 17 19 17 19 17 16 19 6 11 5 5 2 2 8 5 7 7 7 6 7 4 5 12 2 5 2 1 0 2 3 3 4 3 2 3 6
18 16 16 11 8 7 9 3 4 5 8 11 11 8 12 19 19 15 12 8 6 9 5 4 4 3 4 6 7 6 4 3 5 3 5 5 4 1 3 7 9 3 3 1 2 4 4
19 19 17 15 12 7 4 7 8 5 7 10 10 3 13 23 9 6 11 6 4 9 12 4 1 4 7 7 6 5 8 4 3 9 8 6 4 5 10 1 2 3 6 6 4 5 3
17 17 16 17 13 9 10 8 9 12 6 10 9 4 10 23 7 9 3 11 5 11 7 7 8 6 5 7 3 6 6 4 5 2 5 5 4 2 1 3 2 4 4 4 2 3 12
17 16 18 18 14 12 8 10 9 8 9 11 5 2 2 4 2 1 3 3 7 3 4 1 1 2 4 5 5 3 7 4 4 7 5 0 4 7 13 3 4 4 5 5 8 8 11
16 14 14 16 15 15 15 12 9 10 9 10 2 1 3 2 2 2 2 2 3 2 3 7 4 2 2 6 9 8 3 3 8 8 4 3 6 5 9 4 4 6 6 7 10 11 10
13 11 13 15 17 14 17 16 14 11 11 13 4 2 4 3 3 3 3 2 2 3 3 3 4 3 5 3 3 3 2 3 2 5 3 3 5 4 11 2 5 8 7 8 13 14 16
12 11 11 12 14 16 15 17 17 17 13 5 8 7 6 2 2 2 2 3 4 2 4 6 4 3 7 3 2 1 1 1 0 1 0 1 1 2 5 4 4 8 3 5 4 9 3
11 9 10 12 12 17 17 17 18 20 20 7 14 11 5 3 2 3 3 3 3 3 3 3 5 3 2 2 3 4 7 8 10 8 7 1 1 2 2 2 5 4 4 9 13 10 7
7 7 7 10 12 11 15 19 18 19 21 19 14 7 4 2 5 5 8 4 7 3 2 4 3 3 3 2 2 3 1 1 5 6 11 10 1 2 3 3 1 1 4 2 2 4 6
4 4 6 7 9 11 13 16 24 19 18 25 16 16 5 9 5 6 8 7 3 3 4 4 3 4 2 2 2 2 2 2 1 1 4 7 6 2 2 3 4 3 2 7 4 4 1
5 5 5 5 5 8 7 12 14 15 15 24 15 12 7 4 5 11 3 6 7 4 2 3 3 4 7 2 1 2 3 1 3 3 3 3 3 7 6 4 2 5 4 5 4 4 13
5 5 4 5 6 7 5 3 8 14 14 16 17 17 13 6 5 8 7 9 7 7 4 7 3 2 3 3 2 3 3 3 0 3 3 5 4 3 2 2 6 5 2 4 4 16 15
6 5 5 4 5 6 7 5 11 13 18 14 11 14 16 8 6 12 12 10 8 5 6 13 2 5 7 2 1 2 2 0 3 2 1 3 4 3 6 3 5 6 4 7 9 9 11
Wind_Direction
242 239 235 233 228 227 230 235 236 239 242 247 255 261 275 285 289 299 310 317 320 320 320 320 324 325 332 274 254 278 307 305 274 228 180 182 180 159 150 138 114 99 167 124 148 163 264
244 240 238 235 233 230 230 231 236 238 240 244 251 258 264 271 286 297 305 309 312 314 313 311 312 314 302 263 238 288 305 303 258 203 186 175 178 163 121 127 140 151 164 167 179 170 188
248 244 240 237 235 237 236 235 235 237 240 241 246 257 264 271 277 285 299 308 313 315 311 305 305 307 281 269 232 249 202 174 179 176 181 171 156 154 140 110 118 124 164 307 238 199 180
246 246 242 239 236 234 238 240 239 240 242 244 246 252 263 272 278 286 293 301 308 312 309 303 302 302 271 229 227 212 169 157 147 145 163 159 152 129 123 127 50 82 55 121 214 180 194
245 240 241 239 237 235 234 235 240 244 245 246 248 253 256 261 268 275 283 292 299 300 296 293 296 296 270 235 214 196 150 169 158 148 153 152 160 115 120 99 22 9 226 205 297 212 162
245 240 238 239 236 235 236 234 233 237 246 251 251 252 257 264 270 276 282 289 291 284 275 274 261 275 248 229 200 216 289 200 167 159 144 188 124 78 53 109 213 202 218 253 256 13 199
244 241 239 237 236 234 234 237 239 233 235 245 252 256 259 263 268 278 279 296 283 256 232 224 170 212 228 224 269 258 255 201 173 192 188 29 80 212 207 198 131 140 172 198 219 26 283
358 235 236 236 235 233 232 231 233 237 234 234 239 247 255 262 264 270 279 254 151 285 307 244 241 240 244 248 243 238 210 189 168 193 119 26 246 249 73 151 142 131 180 251 283 139 247
346 327 232 236 234 230 228 228 227 228 231 233 235 235 239 250 255 250 236 201 210 333 264 271 238 243 240 220 212 202 187 177 160 159 188 170 229 109 116 115 152 202 195 220 235 333 76
333 355 224 226 235 230 225 221 220 219 221 225 227 231 235 230 237 216 212 193 136 14 59 272 209 216 193 183 249 185 186 178 170 198 167 228 205 151 141 178 139 242 299 73 85 68 252
322 325 352 236 219 225 224 220 215 211 213 215 222 218 215 208 195 184 177 174 129 64 20 272 156 145 166 166 124 183 180 189 174 181 132 232 165 166 160 191 169 194 115 105 87 86 358
322 321 325 317 164 226 222 218 217 215 212 213 216 215 212 217 210 202 185 164 135 54 251 40 131 140 107 64 101 121 144 156 94 114 330 247 308 175 184 112 151 151 93 67 68 115 217
314 321 322 319 285 252 238 216 216 221 214 213 211 213 219 226 210 200 189 158 52 152 250 194 170 160 155 172 187 158 158 177 163 114 233 308 225 351 131 81 24 111 94 325 331 357 227
302 310 310 321 292 327 204 168 197 200 200 201 204 215 223 222 211 193 180 63 187 220 201 144 134 124 183 156 196 165 134 215 218 99 119 166 307 166 183 213 179 189 173 171 223 219 266
295 300 305 303 315 323 348 201 199 195 194 200 202 207 214 213 206 189 175 213 202 205 183 162 106 157 209 201 153 153 197 210 209 175 183 156 271 126 57 151 136 192 196 219 39 92 17
280 286 294 290 271 276 299 140 174 204 194 185 192 202 208 208 199 191 208 220 220 209 204 129 187 168 179 188 157 179 187 202 231 197 140 196 265 4 113 106 40 176 167 84 22 277 263
271 277 275 277 251 262 267 295 273 174 182 184 174 182 201 194 189 198 221 219 197 236 218 179 213 173 190 176 178 191 203 236 213 122 186 151 157 248 121 204 179 151 220 74 148 164 222
264 268 274 269 271 250 230 234 239 147 186 186 178 190 164 179 179 201 222 198 235 203 221 232 128 205 191 178 180 217 206 248 197 150 160 213 158 191 206 214 198 212 207 163 185 226 229
268 262 265 263 258 258 235 210 213 240 240 184 169 138 175 189 203 206 195 211 204 197 197 192 211 200 196 191 218 192 199 51 40 118 154 186 217 301 310 4 359 211 208 210 109 106 233
274 258 263 269 261 231 221 201 199 205 213 201 187 154 171 256 63 72 187 191 180 41 79 48 126 134 165 214 242 233 201 38 57 44 3 83 225 201 247 184 111 174 198 208 212 244 257
275 263 255 265 249 240 227 198 195 201 202 184 191 121 140 175 202 128 68 91 106 114 62 32 62 357 172 222 215 221 52 60 65 10 40 31 251 207 261 226 214 203 203 197 213 234 232
270 269 254 257 267 245 227 215 210 186 184 178 150 168 121 97 103 96 78 63 90 98 56 58 90 74 36 91 35 70 46 42 48 17 52 23 275 7 280 265 256 277 275 256 243 255 259
272 278 251 256 269 266 247 225 223 209 186 163 147 144 118 97 74 81 38 66 74 85 63 70 109 96 80 69 67 56 358 300 6 25 85 290 303 81 285 35 16 281 325 275 139 44 354
276 267 248 252 247 268 228 228 218 219 202 197 172 157 147 140 129 112 126 99 92 70 90 77 108 87 133 104 311 272 251 242 241 232 225 236 199 172 255 95 226 121 19 68 100 88 67
280 261 253 258 256 260 254 268 220 223 216 198 181 169 150 121 147 132 168 150 162 143 121 120 115 106 140 79 51 36 54 230 230 223 211 211 187 246 249 208 10 117 51 18 305 154 14
294 264 256 255 246 261 237 222 220 223 225 213 197 189 137 126 222 144 155 176 142 167 159 139 167 213 154 71 66 116 206 235 295 229 179 189 219 239 208 235 237 140 209 320 220 215 333
318 297 285 278 238 254 258 213 204 210 217 209 214 205 149 125 144 161 158 170 172 141 108 126 161 171 196 166 162 174 242 225 213 215 186 164 189 224 246 267 275 142 262 266 58 280 322
346 326 302 272 267 258 250 231 213 203 208 211 220 213 197 153 172 190 161 141 147 164 146 157 128 183 160 180 161 215 204 220 133 242 188 181 169 210 149 220 250 187 227 130 226 295 302
354 335 312 283 248 238 231 246 215 211 202 205 197 193 212 202 182 209 208 189 180 189 179 181 203 158 169 117 154 121 214 228 176 246 0 248 197 197 187 205 122 187 191 318 326 291 303